CW2840 Weather Reports


time (UTC)temp
C
wind
direction
speed
KPH
gust
KPH
rain 1hr
cm
rain 24hr
cm
rain mn
cm
humidity
%
barometer
mb
20260506153136 26 137 1.6 4.8 0.00 0.00 0.00 83 1010.5
20260506152340 26 137 1.6 8.0 0.00 0.00 0.00 83 1010.5
20260506150136 26 138 3.2 8.0 0.00 0.00 0.00 84 1010.2
20260506144634 25 138 1.6 8.0 0.00 0.00 0.00 85 1010.3
20260506143135 25 138 3.2 11.3 0.00 0.00 0.00 85 1009.9
20260506141634 25 161 0.0 4.8 0.00 0.00 0.00 86 1009.9
20260506140836 25 161 1.6 4.8 0.00 0.00 0.00 86 1010.0
20260506134633 25 161 1.6 4.8 0.00 0.00 0.00 86 1010.1
20260506133134 25 161 0.0 3.2 0.00 0.00 0.00 86 1010.2
20260506132323 24 161 0.0 3.2 0.00 0.00 0.00 87 1010.3
20260506130134 24 161 0.0 3.2 0.00 0.00 0.00 87 1010.1
20260506124632 24 161 1.6 4.8 0.00 0.00 0.00 87 1010.0
20260506123133 24 161 0.0 3.2 0.00 0.00 0.00 87 1009.8
20260506121631 24 161 1.6 3.2 0.00 0.00 0.00 87 1009.7
20260506120132 24 161 0.0 4.8 0.00 0.00 0.00 87 1009.7
20260506115328 24 161 0.0 3.2 0.00 0.00 0.00 87 1009.5
20260506113132 24 161 0.0 3.2 0.00 0.00 0.00 86 1009.4
20260506111630 24 161 0.0 4.8 0.00 0.00 0.00 86 1009.3
20260506110132 24 164 0.0 8.0 0.00 0.00 0.00 86 1008.8
20260506104629 24 162 3.2 4.8 0.00 0.00 0.00 86 1008.7
20260506103130 24 164 3.2 8.0 0.00 0.00 0.00 85 1008.8
20260506101628 24 176 4.8 11.3 0.00 0.00 0.00 84 1008.6
20260506100129 24 190 4.8 11.3 0.00 0.00 0.00 84 1008.5
20260506095325 25 210 6.4 14.5 0.00 0.00 0.00 84 1008.4
20260506093130 25 175 6.4 14.5 0.00 0.00 0.00 84 1008.2
20260506091627 25 200 4.8 11.3 0.00 0.00 0.00 84 1008.3
20260506090129 25 206 3.2 8.0 0.00 0.00 0.00 84 1008.3
20260506084627 25 172 4.8 14.5 0.00 0.00 0.00 83 1008.2
20260506083128 25 176 8.0 14.5 0.00 0.00 0.00 83 1008.2
20260506081626 25 169 6.4 14.5 0.00 0.00 0.00 83 1008.5
20260506080127 25 192 4.8 17.7 0.00 0.00 0.00 83 1008.6
20260506073126 25 209 4.8 14.5 0.00 0.00 0.00 83 1009.0
20260506071624 25 106 4.8 11.3 0.00 0.00 0.00 83 1009.0
20260506070126 25 190 3.2 11.3 0.00 0.00 0.00 83 1009.3
20260506061624 25 197 3.2 14.5 0.00 0.00 0.00 83 1009.4
20260506060124 25 173 8.0 17.7 0.00 0.00 0.00 83 1009.3
20260506050123 25 116 8.0 22.5 0.00 0.00 0.00 81 1009.4
20260506044621 25 207 8.0 17.7 0.00 0.00 0.00 81 1009.3
20260506043123 25 168 4.8 14.5 0.00 0.00 0.00 80 1009.3
20260506041621 25 180 6.4 17.7 0.00 0.00 0.00 80 1009.3
20260506040123 25 161 4.8 11.3 0.00 0.00 0.00 80 1009.0
20260506034620 26 166 4.8 8.0 0.00 0.00 0.00 79 1009.0
20260506033809 26 99 4.8 14.5 0.00 0.00 0.00 79 1008.8
20260506031620 26 190 3.2 11.3 0.00 0.00 0.00 78 1008.8
20260506030120 26 164 8.0 17.7 0.00 0.00 0.00 77 1008.7
20260506025314 26 226 8.0 17.7 0.00 0.00 0.00 77 1008.3
20260506023120 26 148 4.8 14.5 0.00 0.00 0.00 76 1008.1
20260506021618 26 195 4.8 14.5 0.00 0.00 0.00 75 1007.9
20260506020119 26 157 4.8 20.9 0.00 0.00 0.00 74 1007.7
20260506014617 26 176 11.3 20.9 0.00 0.00 0.00 74 1007.4
20260506013119 26 179 9.7 17.7 0.00 0.00 0.00 73 1007.3
20260506011617 26 114 6.4 11.3 0.00 0.00 0.00 73 1007.0
20260506010118 27 221 6.4 22.5 0.00 0.00 0.00 72 1006.8
20260506004616 27 166 9.7 20.9 0.00 0.00 0.00 72 1006.8
20260506003118 27 188 11.3 29.0 0.00 0.00 0.00 72 1006.7
20260506001616 27 183 4.8 20.9 0.00 0.00 0.00 72 1006.8
20260506000117 27 204 9.7 25.7 0.00 0.00 0.00 72 1006.6
20260505234615 27 164 9.7 22.5 0.00 0.00 0.00 72 1006.7
20260505233116 28 162 6.4 22.5 0.00 0.00 0.00 70 1006.5
20260505231615 28 196 8.0 20.9 0.00 0.00 0.00 69 1006.6
20260505230117 28 135 6.4 22.5 0.00 0.00 0.00 68 1006.6
20260505225323 28 247 8.0 29.0 0.00 0.00 0.00 68 1006.5
20260505223115 28 188 9.7 32.2 0.00 0.00 0.00 67 1006.5
20260505221613 29 200 3.2 22.5 0.00 0.00 0.00 68 1006.4
20260505220106 29 147 8.0 22.5 0.00 0.00 0.00 67 1006.6
20260505214604 29 209 6.4 20.9 0.00 0.00 0.00 68 1007.0
20260505213103 28 227 8.0 22.5 0.00 0.00 0.00 67 1007.1
20260505211605 28 204 4.8 20.9 0.00 0.00 0.00 68 1007.2
20260505210752 28 128 11.3 22.5 0.00 0.00 0.00 68 1007.4
20260505204605 29 171 8.0 17.7 0.00 0.00 0.00 69 1007.7
20260505203103 29 213 9.7 20.9 0.00 0.00 0.00 67 1007.9
20260505201603 29 138 3.2 32.2 0.00 0.00 0.00 66 1008.0
20260505200103 29 210 16.1 25.7 0.00 0.00 0.00 67 1008.2
20260505194603 29 180 9.7 20.9 0.00 0.00 0.00 68 1008.3
20260505193103 27 188 4.8 22.5 0.00 0.00 0.00 72 1008.6
20260505191603 28 217 8.0 22.5 0.00 0.00 0.00 69 1008.6
20260505190104 28 168 4.8 20.9 0.00 0.00 0.00 71 1008.7
20260505185308 27 178 8.0 20.9 0.00 0.00 0.00 71 1008.9
20260505183103 27 161 4.8 22.5 0.00 0.00 0.00 73 1009.0
20260505181604 27 185 11.3 20.9 0.00 0.00 0.00 72 1009.1
20260505180103 27 178 11.3 25.7 0.00 0.00 0.00 72 1009.1
20260505174604 27 197 9.7 32.2 0.00 0.00 0.00 72 1009.2
20260505173103 26 216 9.7 22.5 0.00 0.00 0.00 75 1009.5
20260505171603 26 203 6.4 22.5 0.00 0.00 0.00 76 1009.6
20260505170104 26 193 8.0 17.7 0.00 0.00 0.00 77 1009.6
20260505164603 26 224 8.0 17.7 0.00 0.00 0.00 76 1009.5
20260505163103 26 196 8.0 14.5 0.00 0.00 0.00 76 1009.8
20260505161603 26 216 4.8 20.9 0.00 0.00 0.00 76 1009.7
20260505160104 25 188 9.7 17.7 0.00 0.00 0.00 77 1009.6